Location: Karcze
(52.0945°N, 22.4786°E)
Time: 11:45:23
(UTC+00:00)

SeaSat 1 - Pass Details

Date: 14 July 2020
Orbit: 744 x 747 km, 108.0° (Epoch: 07 August)

Event Time Altitude Azimuth Distance (km) Brightness Sun altitude
Rises 00:33:37 0° 33° (NNE) 3,203 7.8 -11.9°
Reaches altitude 10° 00:35:56 10° 37° (NE) 2,275 6.5 -11.8°
Maximum altitude 00:40:50 61° 117° (ESE) 848 2.7 -11.4°
Enters shadow 00:45:00 14° 197° (SSW) 1,988 4.0 -11.1°
